SL-3 R/B, 4420

Orbit data source: Space-Track

SL-3 R/B, 4420 is space debris in LEO originally from a launch on Tue, 23 Jun 1970 UTC launched from the Plesetsk Missile And Space Complex (PKMTR). Debris objects in space refer to the collection of defunct objects orbiting the Earth. Examples of debris include non-operational satellites, rocket bodies, and fragments generated from explosions, collisions, or faulty payload assembly.

Loading next visibility...
Identifier
4420, 1970-047B
Orbit
LEO
Country
Flag of CISCIS
Related business
Manufacturer
Progress
Mission
Spacecraft
Bus & Motor
BLOK-E, Unknown motor
Mass
1,440 kg wet, 1,440 kg dry
Launch date (UTC)
1970-06-23 (56 years ago)
Launch vehicle
Unknown
Launch site
Plesetsk Missile And Space Complex (PKMTR)
Object type
Payload
Rocket body
Debris
Shape & HBR
Unknown
Radar Cross Section
Large (>1 m²)

Expand to show TLE details & history
Last TLE update: 2 days ago

TLE from 2 days ago
0 SL-3 R/B
1  4420U 70047B   26171.20285186  .00000056  00000-0  23035-4 0  9995
2  4420  81.2302 353.9650 0085985 261.2762  97.8664 14.12626661882441
Epoch: 2026-06-20T04:52Z
TLE epoch observation values (Epoch: 2026-06-20T04:52:06.400Z)
Latitude
-0.00004°
Longitude
12.51747°
Altitude
862.332 km
Speed
7.417 km/s
True Right ascension
23h 35m 51s
True Declination
0° 00' 00"
Sunlit
Object was in daylight at epoch
Visualization orbit readout
Latitude
Unknown
Longitude
Unknown
Altitude
Unknown
Speed
Unknown
Apparent Right ascension
Unknown
Apparent Declination
Unknown
Sunlit
N/A
Visualization observer readout
Local Sidereal Time
23:07:54
Azimuth
Unknown
Elevation
Unknown
Doppler factor
Unknown
Orbital elements
Apogee altitude
909.698 km
Perigee altitude
785.438 km
Semi-major axis
7,225.705 km
Eccentricity
0.0086
Inclination
81.2302°
RAAN
353.965°
Arg. of periapsis
261.2762°
True anomaly
98.84096°
Mean anomaly
97.8664°
Eccentric anomaly
98.35383°
Mean motion
3.53364 °/min
Orbital period
101.88 mins
BSTAR
0.000023035
Loading maneuver chart data...
Computing Atmospheric mass density...
Loading historical data...
Loading historical data...
Loading historical data...
Loading historical data...
Loading historical data...
Loading historical data...
Loading historical data...

Documentation

Showing up to 5 results
|